STARLINK-3838, 52352

Orbit data source: Space-Track

STARLINK-3838, 52352 is a payload satellite owned by SpaceX/Seattle (US) in LEO that was launched on Fri, 29 Apr 2022 UTC via an FALCON 9 launch vehicle from the Air Force Eastern Test Range (AFETR). Payload-class satellites include a variety of spacecraft equipped with specific instruments for various scientific and technological missions. These include communications satellites like Starlink; space stations such as the ISS; scientific satellites like the Hubble; Earth observation satellites from companies like Planet Labs, Umbra, and HawkEye 360; GPS; miniature CubeSats for education and research; and military/defense satellites.

Loading next visibility...
Identifier
52352, 2022-045X
Orbit
LEO
Country
Flag of USUS
Related business
Manufacturer
SpaceX/Seattle
Mission
Operational Commercial Communications
Bus & Motor
STARLINK, Unknown motor
Mass
297 kg wet, ~275 kg dry
Launch date (UTC)
2022-04-29 (4 years ago)
Launch vehicle
FALCON 9
Launch site
Air Force Eastern Test Range (AFETR)
Object type
Payload
Rocket body
Debris
Shape & HBR
Box + 1 Pan, 10.1 m
Radar Cross Section
11.087 m², Large (>1 m²)

Expand to show TLE details & history
Last TLE update: 2 days ago

TLE from 2 days ago
0 STARLINK-3838
1 52352U 22045X   26170.95991610 -.00000173  00000-0  72439-5 0  9998
2 52352  53.1609  99.9033 0001450  88.7466 271.3692 15.08831584231228
Epoch: 2026-06-19T23:02Z
TLE epoch observation values (Epoch: 2026-06-19T23:02:16.751Z)
Latitude
0.00004°
Longitude
-153.84787°
Altitude
540.637 km
Speed
7.593 km/s
True Right ascension
06h 39m 36s
True Declination
0° 00' 00"
Sunlit
Object was in daylight at epoch
Visualization orbit readout
Latitude
Unknown
Longitude
Unknown
Altitude
Unknown
Speed
Unknown
Apparent Right ascension
Unknown
Apparent Declination
Unknown
Sunlit
N/A
Visualization observer readout
Local Sidereal Time
21:41:43
Azimuth
Unknown
Elevation
Unknown
Doppler factor
Unknown
Orbital elements
Apogee altitude
541.026 km
Perigee altitude
539.02 km
Semi-major axis
6,918.16 km
Eccentricity
0.00015
Inclination
53.1609°
RAAN
99.9033°
Arg. of periapsis
88.7466°
True anomaly
271.35259°
Mean anomaly
271.3692°
Eccentric anomaly
271.36089°
Mean motion
3.77187 °/min
Orbital period
95.44 mins
BSTAR
0.0000072439
Loading maneuver chart data...
Computing Atmospheric mass density...
Loading historical data...
Loading historical data...
Loading historical data...
Loading historical data...
Loading historical data...
Loading historical data...
Loading historical data...

Documentation

Showing up to 5 results
|